{"data":{"norad_id":33373,"epoch":"2026-09-20T04:35:38.726016Z","epoch_age_seconds":41075,"freshness":"FRESH","line1":"1 33373U 08044A   26263.19142044 -.00000224  00000+0  00000+0 0  9996","line2":"2 33373   0.0325  96.9429 0001948  91.3299 157.7264  1.00269755 65935","mean_motion":1.00269755,"eccentricity":0.0001948,"inclination_deg":0.0325,"raan_deg":96.9429,"arg_perigee_deg":91.3299,"mean_anomaly_deg":157.7264,"bstar":0,"rev_number":6593,"period_min":1436.1259783671,"perigee_km":35778.950252838,"apogee_km":35795.377854128,"semimajor_km":42165.301053483,"source":"CELESTRAK","updated_at":"2026-09-20T09:00:35.134134Z"}}